Midland, MI

11:53 PM EST on January 17, 2018 (GMT -0500)
Barstow

Weather History for KIKW - April, 2014

Change the Weather History Date:

Friday, April 11, 2014

  Actual Average (KMBS) Record (KMBS)
Temperature  
Mean Temperature 48 °F -  
Max Temperature 65 °F 52 °F 75 °F (2011)
Min Temperature 30 °F 33 °F 28 °F (2007)
Degree Days  
Heating Degree Days 18    
Moisture  
Dew Point 25 °F    
Average Humidity 45    
Maximum Humidity 85    
Minimum Humidity 19    
Precipitation  
Precipitation 0.00 in - - ()
Sea Level Pressure  
Sea Level Pressure 29.97 in    
Wind  
Wind Speed 4 mph (WSW)    
Max Wind Speed 16 mph    
Max Gust Speed 30 mph    
Visibility 10 miles    
Events      
Averages and records for this station are not official NWS values.
T = Trace of Precipitation, MM = Missing Value Source: NWS Daily Summary

Daily Weather History Graph

Daily Weather History Graph

Search for Another Location

Airport or City:

Trip Planner

Search our weather history database for the weather conditions in past years. The results will help you decide how hot, cold, wet, or windy it might be!

Date:

Astronomy

Apr. 11, 2014 Rise Set
Actual Time 7:01 AM EDT 8:15 PM EDT
Civil Twilight 6:31 AM EDT 8:45 PM EDT
Nautical Twilight 5:56 AM EDT 9:21 PM EDT
Astronomical Twilight 5:18 AM EDT 9:58 PM EDT
Moon 4:49 PM EDT (4/11) 5:02 AM EDT (4/11)
Length of Visible Light 14h 13m
Length of Day
13h 14m
Waxing Gibbous, 87% of the Moon is Illuminated
Apr 11
Waxing Gibbous
Apr 15
Full
Apr 22
Last Quarter
Apr 29
New
May 6
First Quarter

Hourly Weather History & Observations

Time (EDT) Temp. Windchill Dew Point Humidity Pressure Visibility Wind Dir Wind Speed Gust Speed Precip Events Conditions
12:13 AM 48.9 °F - 25.9 °F 41% 29.87 in 10.0 mi WSW 5.8 mph - N/A   Clear
12:33 AM 47.8 °F - 25.3 °F 41% 29.87 in 10.0 mi West 4.6 mph - N/A   Clear
12:53 AM 46.9 °F - 25.5 °F 43% 29.88 in 10.0 mi West 5.8 mph - N/A   Clear
1:13 AM 46.4 °F 44.3 °F 25.0 °F 43% 29.89 in 10.0 mi West 4.6 mph - N/A   Clear
1:34 AM 45.0 °F 43.5 °F 24.8 °F 45% 29.89 in 10.0 mi WNW 3.5 mph - N/A   Clear
1:53 AM 42.1 °F 40.2 °F 25.3 °F 52% 29.89 in 10.0 mi West 3.5 mph - N/A   Clear
2:13 AM 39.4 °F - 27.0 °F 61% 29.90 in 10.0 mi Calm Calm - N/A   Clear
2:33 AM 37.4 °F - 27.3 °F 67% 29.91 in 10.0 mi Calm Calm - N/A   Clear
2:53 AM 35.6 °F - 27.5 °F 72% 29.92 in 10.0 mi Calm Calm - N/A   Clear
3:14 AM 35.8 °F - 26.8 °F 70% 29.93 in 10.0 mi Calm Calm - N/A   Clear
3:33 AM 34.0 °F - 27.0 °F 75% 29.93 in 10.0 mi Calm Calm - N/A   Clear
3:53 AM 34.9 °F - 27.7 °F 75% 29.94 in 10.0 mi Calm Calm - N/A   Clear
4:14 AM 34.3 °F - 27.3 °F 76% 29.95 in 10.0 mi Calm Calm - N/A   Clear
4:33 AM 34.2 °F - 27.0 °F 75% 29.96 in 10.0 mi Calm Calm - N/A   Clear
4:53 AM 33.8 °F - 27.1 °F 77% 29.95 in 10.0 mi Calm Calm - N/A   Clear
5:14 AM 32.0 °F - 27.3 °F 83% 29.96 in 10.0 mi Calm Calm - N/A   Clear
5:33 AM 33.1 °F - 27.3 °F 79% 29.96 in 10.0 mi Calm Calm - N/A   Clear
5:53 AM 32.0 °F - 27.7 °F 84% 29.96 in 10.0 mi Calm Calm - N/A   Clear
6:14 AM 31.1 °F - 26.8 °F 84% 29.96 in 10.0 mi Calm Calm - N/A   Clear
6:33 AM 32.0 °F - 26.6 °F 80% 29.97 in 10.0 mi Calm Calm - N/A   Clear
6:53 AM 31.8 °F - 26.1 °F 79% 29.97 in 10.0 mi Calm Calm - N/A   Clear
7:14 AM 31.1 °F - 26.4 °F 83% 29.99 in 10.0 mi Calm Calm - N/A   Clear
7:33 AM 30.9 °F - 25.7 °F 81% 30.00 in 10.0 mi Calm Calm - N/A   Clear
7:53 AM 30.0 °F - 25.9 °F 85% 30.00 in 10.0 mi Calm Calm - N/A   Clear
8:14 AM 31.5 °F - 27.1 °F 84% 30.01 in 10.0 mi Calm Calm - N/A   Clear
8:53 AM 37.6 °F - 31.6 °F 79% 30.02 in 10.0 mi Calm Calm - N/A   Clear
9:14 AM 40.6 °F - 30.0 °F 66% 30.02 in 10.0 mi Calm Calm - N/A   Clear
9:33 AM 44.2 °F - 31.5 °F 61% 30.02 in 10.0 mi Calm Calm - N/A   Clear
9:53 AM 49.5 °F - 28.6 °F 45% 30.02 in 10.0 mi Calm Calm - N/A   Clear
10:14 AM 52.3 °F - 27.9 °F 39% 30.02 in 10.0 mi SSE 6.9 mph - N/A   Clear
10:33 AM 54.1 °F - 27.0 °F 35% 30.02 in 10.0 mi South 4.6 mph - N/A   Clear
10:53 AM 55.9 °F - 26.1 °F 32% 30.02 in 10.0 mi SSW 6.9 mph - N/A   Clear
11:13 AM 56.5 °F - 22.5 °F 27% 30.02 in 10.0 mi South 8.1 mph - N/A   Clear
11:33 AM 57.2 °F - 23.5 °F 27% 30.01 in 10.0 mi South 8.1 mph - N/A   Clear
11:53 AM 57.7 °F - 21.7 °F 25% 30.01 in 10.0 mi South 6.9 mph - N/A   Clear
12:14 PM 59.4 °F - 20.1 °F 22% 30.00 in 10.0 mi SSW 12.7 mph 16.1 mph N/A   Clear
12:33 PM 59.7 °F - 20.3 °F 22% 30.00 in 10.0 mi South 6.9 mph - N/A   Clear
12:53 PM 60.6 °F - 21.9 °F 23% 29.99 in 10.0 mi SSW 5.8 mph - N/A   Clear
1:14 PM 61.0 °F - 19.9 °F 21% 29.99 in 10.0 mi West 3.5 mph - N/A   Clear
1:33 PM 62.8 °F - 21.2 °F 20% 29.98 in 10.0 mi SSW 5.8 mph - N/A   Clear
1:53 PM 62.8 °F - 20.7 °F 20% 29.97 in 10.0 mi WSW 6.9 mph 18.4 mph N/A   Clear
2:14 PM 63.3 °F - 21.7 °F 20% 29.95 in 10.0 mi South 8.1 mph - N/A   Clear
2:33 PM 63.5 °F - 20.3 °F 19% 29.95 in 10.0 mi WSW 8.1 mph - N/A   Clear
2:53 PM 64.6 °F - 20.7 °F 19% 29.95 in 10.0 mi West 11.5 mph 19.6 mph N/A   Clear
3:14 PM 64.4 °F - 21.0 °F 19% 29.94 in 7.0 mi WSW 9.2 mph 21.9 mph N/A   Clear
3:33 PM 64.0 °F - 20.8 °F 19% 29.93 in 10.0 mi WSW 12.7 mph 19.6 mph N/A   Clear
3:53 PM 65.5 °F - 21.6 °F 19% 29.92 in 10.0 mi SW 16.1 mph 20.7 mph N/A   Clear
4:13 PM 63.5 °F - 21.0 °F 20% 29.92 in 7.0 mi SW 13.8 mph 18.4 mph N/A   Scattered Clouds
4:33 PM 63.1 °F - 22.1 °F 21% 29.92 in 10.0 mi West 11.5 mph - N/A   Scattered Clouds
4:53 PM 61.3 °F - 24.1 °F 24% 29.93 in 10.0 mi WNW 12.7 mph 17.3 mph N/A   Scattered Clouds
5:13 PM 59.2 °F - 25.3 °F 27% 29.95 in 10.0 mi WNW 12.7 mph 29.9 mph N/A   Mostly Cloudy
5:33 PM 59.2 °F - 25.3 °F 27% 29.95 in 10.0 mi WNW 13.8 mph 21.9 mph N/A   Mostly Cloudy
5:53 PM 58.6 °F - 25.3 °F 28% 29.96 in 10.0 mi WNW 10.4 mph 16.1 mph N/A   Scattered Clouds
6:13 PM 59.0 °F - 24.8 °F 27% 29.95 in 10.0 mi West 5.8 mph - N/A   Clear
6:33 PM 60.8 °F - 25.2 °F 26% 29.95 in 10.0 mi West 5.8 mph - N/A   Scattered Clouds
6:53 PM 60.6 °F - 23.4 °F 24% 29.95 in 10.0 mi West 6.9 mph - N/A   Mostly Cloudy
7:13 PM 59.7 °F - 22.3 °F 24% 29.96 in 10.0 mi West 5.8 mph - N/A   Mostly Cloudy
7:33 PM 59.2 °F - 21.4 °F 23% 29.96 in 10.0 mi West 9.2 mph - N/A   Overcast
7:53 PM 59.0 °F - 20.3 °F 22% 29.97 in 10.0 mi West 6.9 mph - N/A   Overcast
8:13 PM 58.1 °F - 20.5 °F 23% 29.97 in 10.0 mi WSW 3.5 mph - N/A   Overcast
8:33 PM 57.6 °F - 19.4 °F 23% 29.98 in 10.0 mi Calm Calm - N/A   Mostly Cloudy
8:54 PM 55.0 °F - 23.9 °F 30% 29.99 in 10.0 mi North 5.8 mph - N/A   Mostly Cloudy
9:13 PM 54.7 °F - 22.3 °F 28% 29.99 in 10.0 mi North 3.5 mph - N/A   Mostly Cloudy
9:33 PM 54.1 °F - 22.1 °F 29% 30.00 in 10.0 mi Calm Calm - N/A   Mostly Cloudy
9:54 PM 51.3 °F - 26.1 °F 38% 30.00 in 10.0 mi Calm Calm - N/A   Scattered Clouds
10:13 PM 45.9 °F - 29.8 °F 54% 30.01 in 10.0 mi Calm Calm - N/A   Clear
10:33 PM 44.6 °F - 25.9 °F 48% 30.01 in 10.0 mi Calm Calm - N/A   Clear
10:54 PM 41.5 °F - 27.9 °F 58% 30.01 in 10.0 mi Calm Calm - N/A   Clear
11:13 PM 39.4 °F - 28.0 °F 64% 30.02 in 10.0 mi Calm Calm - N/A   Clear
11:33 PM 41.2 °F - 25.5 °F 54% 30.03 in 10.0 mi Calm Calm - N/A   Clear
11:54 PM 39.6 °F - 29.1 °F 66% 30.02 in 10.0 mi Calm Calm - N/A   Clear